Location: Hermaringen
(48.5952°N, 10.2585°E)
Time: 18:28:49
(UTC+00:00)

Injun/Solrad 3 - Pass Details

Date: 26 February 2026
Orbit: 872 x 984 km, 66.8° (Epoch: 6 March)

Event Time Altitude Azimuth Distance (km) Brightness Sun altitude
Rises 17:57:00 0° 321° (NW) 3,586 11.6 -10.5°
Reaches altitude 10° 17:59:36 10° 315° (NW) 2,656 11.0 -11.0°
Maximum altitude 18:05:26 45° 245° (WSW) 1,288 9.2 -11.9°
Drops below altitude 10° 18:11:22 10° 175° (S) 2,706 10.3 -12.9°
Sets 18:14:03 0° 169° (S) 3,660 10.9 -13.3°
